Change the Weather History Date:

Tuesday, September 17, 2013

  Actual Average (KTUL) Record (KTUL)
Temperature  
Mean Temperature 72 °F 72 °F  
Max Temperature 80 °F 83 °F 104 °F (1931)
Min Temperature 64 °F 62 °F 44 °F (1981)
Degree Days  
Heating Degree Days 0 1  
Month to date heating degree days 3  
Since 1 July heating degree days 3  
Cooling Degree Days 7 8  
Month to date cooling degree days 186  
Year to date cooling degree days 1887  
Growing Degree Days 22 (Base 50)    
Moisture  
Dew Point 65 °F    
Average Humidity 78    
Maximum Humidity 94    
Minimum Humidity 58    
Precipitation  
Precipitation 0.01 in 0.15 in 1.76 in (1923)
Month to date precipitation 2.41  
Year to date precipitation 29.89  
Sea Level Pressure  
Sea Level Pressure 30.10 in    
Wind  
Wind Speed 6 mph (East)    
Max Wind Speed 10 mph    
Max Gust Speed 16 mph    
Visibility 9 miles    
Events Rain , Thunderstorm    
T = Trace of Precipitation, MM = Missing Value Source: NWS Daily Summary

Daily Weather History Graph

Daily Weather History Graph

Search for Another Location

Airport or City:

Trip Planner

Search our weather history database for the weather conditions in past years. The results will help you decide how hot, cold, wet, or windy it might be!

Date:

Astronomy

Sep. 17, 2013 Rise Set
Actual Time 7:06 AM CDT 7:25 PM CDT
Civil Twilight 6:40 AM CDT 7:51 PM CDT
Nautical Twilight 6:10 AM CDT 8:21 PM CDT
Astronomical Twilight 5:39 AM CDT 8:52 PM CDT
Moon 6:12 PM CDT (9/17) 5:04 AM CDT (9/17)
Length of Visible Light 13h 11m
Length of Day
12h 19m
Waxing Gibbous, 96% of the Moon is Illuminated
Sep 17
Waxing Gibbous
Sep 19
Full
Sep 26
Last Quarter
Oct 4
New
Oct 11
First Quarter

Hourly Weather History & Observations

Time (CDT) Temp. Heat Index Dew Point Humidity Pressure Visibility Wind Dir Wind Speed Gust Speed Precip Events Conditions
12:15 AM 69.8 °F - 66.2 °F 88% 30.16 in 10.0 mi NE 4.6 mph - N/A   Scattered Clouds
12:35 AM 69.8 °F - 66.2 °F 88% 30.15 in 10.0 mi NE 5.8 mph - N/A   Scattered Clouds
12:55 AM 68.0 °F - 66.2 °F 94% 30.15 in 7.0 mi NE 6.9 mph - N/A   Clear
1:15 AM 68.0 °F - 66.2 °F 94% 30.14 in 7.0 mi NE 6.9 mph - N/A   Clear
1:35 AM 68.0 °F - 66.2 °F 94% 30.15 in 5.0 mi ENE 6.9 mph - N/A   Clear
1:55 AM 68.0 °F - 66.2 °F 94% 30.14 in 5.0 mi ENE 6.9 mph - N/A   Clear
2:15 AM 68.0 °F - 66.2 °F 94% 30.14 in 5.0 mi East 8.1 mph - N/A   Clear
2:35 AM 68.0 °F - 66.2 °F 94% 30.13 in 5.0 mi ENE 10.4 mph - N/A   Clear
2:55 AM 68.0 °F - 66.2 °F 94% 30.13 in 5.0 mi ENE 6.9 mph - N/A   Clear
3:15 AM 68.0 °F - 64.4 °F 88% 30.12 in 5.0 mi ENE 6.9 mph - N/A   Clear
3:35 AM 68.0 °F - 64.4 °F 88% 30.12 in 7.0 mi ENE 8.1 mph - N/A   Clear
3:55 AM 68.0 °F - 64.4 °F 88% 30.12 in 7.0 mi ENE 8.1 mph - N/A   Clear
4:15 AM 68.0 °F - 64.4 °F 88% 30.11 in 7.0 mi ENE 9.2 mph - N/A   Clear
4:35 AM 66.2 °F - 64.4 °F 94% 30.11 in 7.0 mi ENE 9.2 mph - N/A   Clear
4:55 AM 66.2 °F - 64.4 °F 94% 30.11 in 7.0 mi ENE 5.8 mph - N/A   Clear
5:15 AM 66.2 °F - 62.6 °F 88% 30.11 in 10.0 mi East 6.9 mph - N/A   Clear
5:35 AM 66.2 °F - 62.6 °F 88% 30.11 in 10.0 mi East 6.9 mph - N/A   Clear
5:55 AM 66.2 °F - 62.6 °F 88% 30.11 in 10.0 mi East 6.9 mph - N/A   Clear
6:15 AM 64.4 °F - 62.6 °F 94% 30.12 in 7.0 mi NE 5.8 mph - N/A   Clear
6:35 AM 66.2 °F - 62.6 °F 88% 30.12 in 10.0 mi ENE 5.8 mph - N/A   Clear
6:55 AM 68.0 °F - 62.6 °F 83% 30.12 in 10.0 mi East 4.6 mph - N/A   Scattered Clouds
7:15 AM 66.2 °F - 62.6 °F 88% 30.13 in 10.0 mi Calm Calm - N/A   Clear
7:35 AM 66.2 °F - 62.6 °F 88% 30.14 in 10.0 mi Calm Calm - N/A   Clear
7:55 AM 68.0 °F - 64.4 °F 88% 30.15 in 10.0 mi Calm Calm - N/A Thunderstorm Scattered Clouds
8:15 AM 68.0 °F - 64.4 °F 88% 30.16 in 10.0 mi Calm Calm - N/A   Clear
8:35 AM 68.0 °F - 64.4 °F 88% 30.15 in 10.0 mi Calm Calm - N/A   Clear
8:55 AM 69.8 °F - 64.4 °F 83% 30.16 in 10.0 mi Calm Calm - N/A   Scattered Clouds
9:15 AM 69.8 °F - 64.4 °F 83% 30.16 in 10.0 mi Calm Calm - N/A   Clear
9:35 AM 69.8 °F - 64.4 °F 83% 30.16 in 10.0 mi Calm Calm - N/A   Clear
9:55 AM 69.8 °F - 64.4 °F 83% 30.16 in 10.0 mi Calm Calm - N/A   Clear
10:15 AM 71.6 °F - 62.6 °F 73% 30.17 in 10.0 mi Calm Calm - N/A   Clear
10:35 AM 71.6 °F - 64.4 °F 78% 30.17 in 7.0 mi Calm Calm - N/A Rain Rain
10:55 AM 71.6 °F - 64.4 °F 78% 30.17 in 10.0 mi SSE 3.5 mph - N/A   Scattered Clouds
11:15 AM 71.6 °F - 64.4 °F 78% 30.16 in 10.0 mi SE 3.5 mph - N/A Rain Light Rain
11:35 AM 71.6 °F - 64.4 °F 78% 30.16 in 7.0 mi SE 5.8 mph - 0.01 in Rain Light Rain
11:55 AM 71.6 °F - 64.4 °F 78% 30.15 in 10.0 mi ESE 4.6 mph - 0.01 in   Scattered Clouds
12:15 PM 73.4 °F - 64.4 °F 73% 30.15 in 10.0 mi ESE 5.8 mph - N/A   Clear
12:35 PM 73.4 °F - 64.4 °F 73% 30.14 in 10.0 mi ESE 5.8 mph - N/A   Clear
12:55 PM 73.4 °F - 64.4 °F 73% 30.13 in 10.0 mi SE 6.9 mph - N/A   Clear
1:15 PM 73.4 °F - 64.4 °F 73% 30.13 in 10.0 mi ESE 5.8 mph - N/A   Clear
1:35 PM 73.4 °F - 62.6 °F 69% 30.13 in 10.0 mi SSE 3.5 mph - N/A   Clear
1:55 PM 73.4 °F - 62.6 °F 69% 30.11 in 10.0 mi ESE 4.6 mph - N/A   Clear
2:15 PM 75.2 °F - 62.6 °F 65% 30.11 in 10.0 mi SE 3.5 mph - N/A   Clear
2:35 PM 75.2 °F - 62.6 °F 65% 30.10 in 10.0 mi ESE 5.8 mph - N/A   Clear
2:55 PM 75.2 °F - 62.6 °F 65% 30.10 in 10.0 mi ESE 3.5 mph - N/A   Scattered Clouds
3:15 PM 75.2 °F - 62.6 °F 65% 30.08 in 10.0 mi East 8.1 mph - N/A Rain Light Rain
3:35 PM 73.4 °F - 64.4 °F 73% 30.09 in 10.0 mi East 3.5 mph - N/A   Scattered Clouds
3:55 PM 77.0 °F - 64.4 °F 65% 30.07 in 10.0 mi ENE 6.9 mph - N/A   Clear
4:15 PM 78.8 °F - 64.4 °F 61% 30.05 in 10.0 mi ENE 10.4 mph - N/A   Clear
4:35 PM 80.6 °F 82.3 °F 64.4 °F 58% 30.04 in 10.0 mi East 10.4 mph 16.1 mph N/A   Clear
4:55 PM 80.6 °F 82.3 °F 64.4 °F 58% 30.03 in 10.0 mi East 10.4 mph - N/A   Clear
5:15 PM 80.6 °F 82.7 °F 66.2 °F 61% 30.03 in 10.0 mi East 10.4 mph - N/A   Clear
5:35 PM 80.6 °F 82.3 °F 64.4 °F 58% 30.03 in 10.0 mi East 8.1 mph - N/A   Clear
5:55 PM 80.6 °F 82.3 °F 64.4 °F 58% 30.03 in 10.0 mi East 10.4 mph - N/A   Clear
6:15 PM 80.6 °F 82.3 °F 64.4 °F 58% 30.02 in 10.0 mi ESE 9.2 mph - N/A   Clear
6:35 PM 80.6 °F 82.3 °F 64.4 °F 58% 30.02 in 10.0 mi East 6.9 mph - N/A   Clear
6:55 PM 78.8 °F - 64.4 °F 61% 30.02 in 10.0 mi East 4.6 mph - N/A   Clear
7:15 PM 77.0 °F - 66.2 °F 69% 30.02 in 10.0 mi East 3.5 mph - N/A   Clear
7:35 PM 77.0 °F - 66.2 °F 69% 30.02 in 10.0 mi ESE 4.6 mph - N/A   Clear
7:55 PM 75.2 °F - 66.2 °F 73% 30.01 in 10.0 mi East 5.8 mph - N/A   Clear
8:15 PM 73.4 °F - 66.2 °F 78% 30.01 in 10.0 mi East 6.9 mph - N/A   Clear
8:35 PM 73.4 °F - 66.2 °F 78% 30.02 in 10.0 mi East 5.8 mph - N/A   Clear
8:55 PM 73.4 °F - 66.2 °F 78% 30.02 in 10.0 mi ESE 6.9 mph - N/A   Clear
9:15 PM 73.4 °F - 64.4 °F 73% 30.02 in 10.0 mi ESE 6.9 mph - N/A   Clear
9:35 PM 73.4 °F - 66.2 °F 78% 30.02 in 10.0 mi ESE 5.8 mph - N/A   Clear
9:55 PM 71.6 °F - 64.4 °F 78% 30.03 in 10.0 mi SE 5.8 mph - N/A   Clear
10:15 PM 71.6 °F - 66.2 °F 83% 30.05 in 10.0 mi SW 4.6 mph - N/A   Scattered Clouds
10:35 PM 73.4 °F - 66.2 °F 78% 30.03 in 10.0 mi South 6.9 mph - N/A   Clear
11:15 PM 73.4 °F - 64.4 °F 73% 30.03 in 10.0 mi South 5.8 mph - N/A   Clear
11:35 PM 71.6 °F - 64.4 °F 78% 30.03 in 10.0 mi South 3.5 mph - N/A   Clear
11:55 PM 71.6 °F - 64.4 °F 78% 30.03 in 10.0 mi South 5.8 mph - N/A   Clear